Dundee, United Kingdom

11:33 PM BST on September 28, 2016 (GMT +0100)
Dundee

Weather History for EGPN - December, 2012

Change the Weather History Date:

Thursday, December 20, 2012

  Actual Average Record
Temperature  
Mean Temperature 40 °F -  
Max Temperature 42 °F 42 °F 53 °F (2015)
Min Temperature 39 °F 35 °F 24 °F (2010)
Degree Days  
Heating Degree Days 24    
Moisture  
Dew Point 37 °F    
Average Humidity 89    
Maximum Humidity 93    
Minimum Humidity 87    
Precipitation  
Precipitation 0.00 in - - ()
Sea Level Pressure  
Sea Level Pressure 29.70 in    
Wind  
Wind Speed 23 mph ()    
Max Wind Speed 30 mph    
Max Gust Speed 43 mph    
Visibility 4.0 miles    
Events Rain    
Averages and records for this station are not official NWS values.
T = Trace of Precipitation, MM = Missing Value Source: Averaged Metar Reports

Daily Weather History Graph

Daily Weather History Graph

Search for Another Location

Airport or City:

Trip Planner

Search our weather history database for the weather conditions in past years. The results will help you decide how hot, cold, wet, or windy it might be!

Date:

Astronomy

Dec. 20, 2012 Rise Set
Actual Time 8:44 AM GMT 3:35 PM GMT
Civil Twilight 7:56 AM GMT 4:23 PM GMT
Nautical Twilight 7:06 AM GMT 5:13 PM GMT
Astronomical Twilight 6:19 AM GMT 5:59 PM GMT
Moon 11:48 AM GMT (12/20) 12:09 AM GMT (12/20)
Length of Visible Light 8h 27m
Length of Day
6h 50m
First Quarter, 53% of the Moon is Illuminated
Dec 20
First Quarter
Dec 28
Full
Jan 5
Last Quarter
Jan 11
New
Jan 18
First Quarter

Hourly Weather History & Observations

Time (GMT) Temp. Windchill Dew Point Humidity Pressure Visibility Wind Dir Wind Speed Gust Speed Precip Events Conditions
6:20 AM 41.0 °F 31.4 °F 37.4 °F 87% 29.80 in 6.2 mi ESE 21.9 mph - N/A Rain Rain
6:50 AM 41.0 °F 31.1 °F 37.4 °F 87% 29.80 in 5.0 mi East 23.0 mph - N/A Rain Rain
7:20 AM 41.0 °F 30.9 °F 37.4 °F 87% 29.77 in 4.3 mi ESE 24.2 mph - N/A Rain Rain
7:50 AM 39.2 °F 28.0 °F 35.6 °F 87% 29.77 in 3.7 mi ESE 26.5 mph - N/A Rain Rain
8:20 AM 39.2 °F 28.5 °F 35.6 °F 87% 29.77 in 3.7 mi ESE 24.2 mph - N/A Rain Rain
8:50 AM 39.2 °F 28.7 °F 35.6 °F 87% 29.77 in 3.7 mi East 23.0 mph - N/A Rain Rain
9:20 AM 39.2 °F 29.0 °F 37.4 °F 93% 29.74 in 3.7 mi East 21.9 mph - N/A Rain Rain
9:50 AM 39.2 °F 28.0 °F 37.4 °F 93% 29.74 in 3.7 mi East 26.5 mph - N/A Rain Rain
10:20 AM 39.2 °F 28.0 °F 37.4 °F 93% 29.74 in 3.7 mi East 26.5 mph 39.1 mph N/A Rain Rain
10:50 AM 41.0 °F 30.9 °F 37.4 °F 87% 29.74 in 3.7 mi East 24.2 mph 36.8 mph N/A Rain Rain
11:20 AM 39.2 °F 28.0 °F 37.4 °F 93% 29.71 in 3.7 mi East 26.5 mph 39.1 mph N/A Rain Rain
11:50 AM 41.0 °F 30.5 °F 37.4 °F 87% 29.71 in 3.7 mi East 26.5 mph 39.1 mph N/A Rain Rain
12:20 PM 39.2 °F 27.8 °F 35.6 °F 87% 29.71 in 4.3 mi East 27.6 mph 40.3 mph N/A Rain Rain
12:50 PM 39.2 °F 27.8 °F 35.6 °F 87% 29.68 in 4.3 mi East 27.6 mph - N/A Rain Rain
1:20 PM 41.0 °F 30.7 °F 37.4 °F 87% 29.68 in 4.3 mi East 25.3 mph 38.0 mph N/A Rain Rain
1:50 PM 39.2 °F 28.3 °F 37.4 °F 93% 29.68 in 3.7 mi East 25.3 mph - N/A Rain Rain
2:20 PM 39.2 °F 28.3 °F 35.6 °F 87% 29.65 in 3.7 mi ESE 25.3 mph 41.4 mph N/A Rain Rain
2:50 PM 39.2 °F 27.6 °F 37.4 °F 93% 29.68 in 3.7 mi ESE 28.8 mph 42.6 mph N/A Rain Rain
3:20 PM 39.2 °F 27.8 °F 35.6 °F 87% 29.65 in 3.7 mi ESE 27.6 mph 39.1 mph N/A Rain Rain
3:50 PM 39.2 °F 27.8 °F 35.6 °F 87% 29.65 in 3.7 mi ESE 27.6 mph - N/A Rain Rain
4:20 PM 39.2 °F 27.4 °F 35.6 °F 87% 29.65 in 3.1 mi ESE 29.9 mph 41.4 mph N/A Rain Heavy Rain
4:50 PM 39.2 °F 27.8 °F 35.6 °F 87% 29.65 in 3.1 mi ESE 27.6 mph - N/A Rain Heavy Rain
5:20 PM 39.2 °F 27.8 °F 35.6 °F 87% 29.65 in 3.7 mi ESE 27.6 mph - N/A Rain Rain
5:50 PM 39.2 °F 28.3 °F 37.4 °F 93% 29.65 in 4.3 mi ESE 25.3 mph 36.8 mph N/A Rain Rain
6:20 PM 39.2 °F 27.8 °F 35.6 °F 87% 29.65 in 4.3 mi ESE 27.6 mph 39.1 mph N/A Rain Rain
6:50 PM 39.2 °F 27.8 °F 35.6 °F 87% 29.68 in 4.3 mi ESE 27.6 mph 41.4 mph N/A Rain Rain
7:20 PM 39.2 °F 28.0 °F 35.6 °F 87% 29.68 in 4.3 mi East 26.5 mph - N/A Rain Rain
7:50 PM 39.2 °F 28.0 °F 35.6 °F 87% 29.68 in 4.3 mi ESE 26.5 mph - N/A Rain Rain
8:20 PM 39.2 °F 27.8 °F 35.6 °F 87% 29.68 in 4.3 mi ESE 27.6 mph - N/A Rain Rain
8:50 PM 42.8 °F 33.1 °F 39.2 °F 87% 29.68 in 4.3 mi ESE 25.3 mph 39.1 mph N/A Rain Rain
9:20 PM 39.2 °F 28.7 °F 35.6 °F 87% 29.68 in 3.7 mi ESE 23.0 mph - N/A Rain Rain
9:50 PM 39.2 °F 28.3 °F 37.4 °F 93% 29.68 in 3.7 mi ESE 25.3 mph - N/A Rain Rain